Regional Weather Roundup
Issued by NWS

Current Version | Previous Version | Text Only | Print | Product List | Glossary On
Versions: 1 2 3 4 5 6 7 8 9 10 11 12 13 14 15 16 17 18 19 20 21 22 23 24 25 26 27 28 29 30 31 32 33 34 35 36 37 38 39 40 41 42 43 44 45 46 47 48 49 50
000
ASUS44 KBMX 301510
RWRAL

ALABAMA REGIONAL WEATHER ROUNDUP
NATIONAL WEATHER SERVICE BIRMINGHAM AL
1000 AM CDT WED JUL 30 2014

NOTE: "FAIR" INDICATES FEW OR NO CLOUDS BELOW 12,000 FEET
WITH NO SIGNIFICANT WEATHER AND/OR OBSTRUCTIONS TO VISIBILITY.

THE REMARK "TC" DENOTES TEMPERATURE IN DEGREES CELSIUS.

ALZ001>011-014-016>018-020-301600-
NORTH ALABAMA

CITY           SKY/WX    TMP DP  RH WIND       PRES   REMARKS
MUSCLE SHOALS  SUNNY     75  56  51 E6        30.13S
HUNTSVILLE     MOSUNNY   75  56  51 NE8       30.12R
DECATUR        SUNNY     74  60  61 N5        30.13R
HALEYVILLE     FAIR      74  59  59 CALM      30.15S
GADSDEN        SUNNY     72  55  56 N8        30.10R
$$

ALZ012-013-022-023-030>036-040>044-301600-
WEST CENTRAL ALABAMA

CITY           SKY/WX    TMP DP  RH WIND       PRES   REMARKS
TUSCALOOSA     SUNNY     76  58  53 NE5       30.11S
$$

ALZ015-024>027-033>036-040>044-301600-
CENTRAL ALABAMA

CITY           SKY/WX    TMP DP  RH WIND       PRES   REMARKS
BIRMINGHAM     PTSUNNY   76  54  46 N9        30.12S
MONTGOMERY     SUNNY     77  55  46 N7        30.08S
SHELBY CO ARPT SUNNY     74  56  53 VRB5      30.09F
MAXWELL AFB    SUNNY     76  56  48 N8        30.07S
GREENVILLE     FAIR      76  53  44 N9        30.07S
$$

ALZ019-021-028-029-037-038-045>048-301600-
EAST CENTRAL ALABAMA

CITY           SKY/WX    TMP DP  RH WIND       PRES   REMARKS
ANNISTON       SUNNY     72  56  57 VRB3      30.09R
ALEXANDER CITY MOSUNNY   76  56  50 NE6       30.08S
AUBURN         MOSUNNY   70  54  56 NE5       30.10S
$$

ALZ051>064-301600-
SOUTHWEST ALABAMA

CITY           SKY/WX    TMP DP  RH WIND       PRES   REMARKS
MOBILE         MOSUNNY   77  59  53 NE7       30.08S
BROOKLEY FIELD MOSUNNY   77  60  55 NE6       30.08R
EVERGREEN      SUNNY     79  56  45 NE8       30.08S
$$

ALZ049-050-065>069-301600-
SOUTHEAST ALABAMA

CITY           SKY/WX    TMP DP  RH WIND       PRES   REMARKS
DOTHAN         SUNNY     75  59  57 CALM      30.09S
OZARK          SUNNY     76  58  52 VRB3      30.06R
TROY           SUNNY     76  55  48 NE8       30.07S
EUFAULA        FAIR      76  60  57 VRB3      30.04S
$$


USA.gov is the U.S. government's official web portal to all federal, state and local government web resources and services.